W5CGC Weather Reports


Display with metric or nautical units.
time (UTC)temp
F
wind
direction
speed
MPH
gust
MPH
rain 1hr
in
rain 24hr
in
rain mn
in
humidity
%
barometer
mb
20200220074708 42 42 3.0 7.0 0.08 0.69 0.11 86 1024.7
20200220073126 42 53 2.0 7.0 0.06 0.66 0.08 86 1024.9
20200220071713 42 53 0.0 5.0 0.05 0.64 0.06 86 1024.9
20200220070207 42 90 3.0 5.0 0.04 0.62 0.04 86 1024.9
20200220064606 42 35 0.0 2.0 0.04 0.61 0.03 86 1025.3
20200220063315 42 53 1.0 3.0 0.04 0.60 0.02 86 1025.4
20200220061621 42 53 0.0 4.0 0.04 0.59 0.01 85 1025.2
20200220060104 42 78 2.0 4.0 0.04 0.57 0.00 85 1025.2
20200220054718 42 57 0.0 3.0 0.04 0.56 0.56 85 1025.6
20200220053113 42 79 0.0 4.0 0.04 0.56 0.56 84 1025.3
20200220051544 42 45 1.0 3.0 0.04 0.55 0.55 84 1025.3
20200220050114 42 58 3.0 7.0 0.04 0.54 0.54 84 1024.9
20200220044718 42 43 2.0 6.0 0.05 0.53 0.53 84 1024.4
20200220043112 42 39 1.0 6.0 0.06 0.52 0.52 84 1024.7
20200220041731 42 69 4.0 7.0 0.08 0.51 0.51 81 1024.6
20200220040046 42 68 1.0 6.0 0.11 0.50 0.50 80 1025.1
20200220034550 42 71 5.0 8.0 0.14 0.48 0.48 79 1024.0
20200220033114 43 83 2.0 6.0 0.16 0.46 0.46 78 1024.7
20200220031603 43 63 2.0 6.0 0.16 0.43 0.43 77 1025.2
20200220030118 43 48 2.0 6.0 0.14 0.39 0.39 76 1024.9
20200220024559 43 51 2.0 6.0 0.09 0.33 0.33 76 1025.1
20200220023031 44 76 1.0 5.0 0.08 0.30 0.30 76 1025.0
20200220021607 44 73 2.0 7.0 0.06 0.27 0.27 75 1024.3
20200220020045 45 356 2.0 5.0 0.04 0.25 0.25 80 1024.1
20200220014628 45 65 2.0 6.0 0.03 0.24 0.24 80 1024.0
20200220013134 45 46 0.0 7.0 0.01 0.22 0.22 81 1023.9
20200220011537 45 51 3.0 7.0 0.00 0.21 0.21 83 1023.5
20200220010034 45 52 2.0 6.0 0.01 0.21 0.21 84 1023.8
20200220004603 45 72 1.0 5.0 0.01 0.21 0.21 84 1023.4
20200220001545 45 55 0.0 3.0 0.04 0.21 0.21 82 1024.0
20200220000114 45 72 0.0 2.0 0.08 0.20 0.20 81 1024.1
20200219234540 45 68 0.0 1.0 0.10 0.20 0.20 78 1024.2
20200219233029 46 81 0.0 2.0 0.14 0.19 0.19 76 1024.0
20200219231553 46 66 0.0 2.0 0.13 0.17 0.17 74 1023.7
20200219230022 46 89 0.0 1.0 0.08 0.12 0.12 71 1024.0
20200219224544 46 84 0.0 1.0 0.06 0.10 0.10 69 1024.0
20200219223018 47 152 0.0 1.0 0.02 0.05 0.05 67 1023.9
20200219221619 47 77 0.0 1.0 0.02 0.04 0.04 66 1023.7
20200219220018 47 79 0.0 1.0 0.04 0.04 0.04 65 1023.8
20200219214534 47 79 0.0 2.0 0.04 0.04 0.04 64 1023.8
20200219213016 47 61 1.0 2.0 0.03 0.03 0.03 63 1023.7
20200219211516 49 56 1.0 4.0 0.01 0.01 0.01 58 1023.8
20200219204530 49 35 1.0 3.0 0.00 0.00 0.00 55 1024.4
20200219203013 49 49 2.0 4.0 0.00 0.00 0.00 55 1024.2
20200219201513 49 335 1.0 4.0 0.00 0.00 0.00 54 1024.3
20200219200017 49 51 1.0 5.0 0.00 0.00 0.00 54 1024.2
20200219194521 49 32 1.0 4.0 0.00 0.00 0.00 54 1024.5
20200219193006 49 5 2.0 4.0 0.00 0.00 0.00 54 1025.1
20200219191741 49 59 1.0 4.0 0.00 0.00 0.00 53 1025.4
20200219190149 49 25 2.0 5.0 0.00 0.00 0.00 53 1025.6
20200219184631 49 32 2.0 5.0 0.00 0.00 0.00 52 1025.7
20200219183149 48 43 2.0 5.0 0.00 0.00 0.00 52 1026.0
20200219181706 48 32 2.0 5.0 0.00 0.00 0.00 53 1026.4
20200219180141 48 70 1.0 5.0 0.00 0.00 0.00 52 1026.8
20200219174643 48 67 2.0 5.0 0.00 0.00 0.00 53 1027.0
20200219173152 48 31 2.0 7.0 0.00 0.00 0.00 52 1027.4
20200219171804 48 38 2.0 6.0 0.00 0.00 0.00 53 1027.3
20200219170124 47 74 1.0 4.0 0.00 0.00 0.00 55 1027.5
20200219164607 46 25 1.0 6.0 0.00 0.00 0.00 55 1027.6
20200219163133 46 13 3.0 6.0 0.00 0.00 0.00 54 1027.9
20200219161613 46 41 3.0 5.0 0.00 0.00 0.00 55 1027.7
20200219160058 46 4 2.0 7.0 0.00 0.00 0.00 56 1027.6
20200219154641 45 88 1.0 6.0 0.00 0.00 0.00 58 1027.8
20200219153210 44 30 2.0 5.0 0.00 0.00 0.00 58 1027.7
20200219151554 43 44 2.0 6.0 0.00 0.00 0.00 59 1027.4
20200219150056 43 7 2.0 6.0 0.00 0.00 0.00 60 1027.5
20200219144644 42 34 1.0 6.0 0.00 0.00 0.00 61 1027.2
20200219143138 41 37 1.0 7.0 0.00 0.00 0.00 62 1026.8
20200219141629 41 49 0.0 5.0 0.00 0.00 0.00 61 1027.1
20200219140127 41 1 1.0 5.0 0.00 0.00 0.00 62 1026.9
20200219134638 41 34 0.0 7.0 0.00 0.00 0.00 62 1027.1
20200219133046 41 344 0.0 5.0 0.00 0.00 0.00 62 1026.6
20200219131605 41 33 1.0 3.0 0.00 0.00 0.00 62 1026.7
20200219130045 41 347 0.0 6.0 0.00 0.00 0.00 61 1026.9
20200219124551 41 43 0.0 3.0 0.00 0.00 0.00 61 1026.7
20200219123100 41 38 1.0 5.0 0.00 0.00 0.00 61 1026.4
20200219121535 41 43 0.0 4.0 0.00 0.00 0.00 60 1026.4
20200219120041 42 30 0.0 5.0 0.00 0.00 0.00 60 1026.4
20200219114526 42 290 1.0 4.0 0.00 0.00 0.00 60 1026.6
20200219113051 42 343 0.0 4.0 0.00 0.00 0.00 59 1026.4
20200219111523 42 76 1.0 6.0 0.00 0.00 0.00 59 1026.6
20200219110016 42 27 1.0 5.0 0.00 0.00 0.00 58 1026.3
20200219104519 43 17 1.0 4.0 0.00 0.00 0.00 58 1025.9
20200219103028 43 49 1.0 5.0 0.00 0.00 0.00 58 1025.8
20200219101533 43 49 0.0 5.0 0.00 0.00 0.00 58 1025.8
20200219100029 43 41 2.0 5.0 0.00 0.00 0.00 57 1025.9
20200219094534 44 335 1.0 5.0 0.00 0.00 0.00 57 1025.9
20200219093015 44 304 0.0 5.0 0.00 0.00 0.00 57 1025.6
20200219091510 45 332 1.0 5.0 0.00 0.00 0.00 56 1025.7
20200219090246 45 35 1.0 5.0 0.00 0.00 0.00 56 1025.8
20200219084633 45 329 0.0 4.0 0.00 0.00 0.00 56 1025.8
20200219083110 45 41 0.0 6.0 0.00 0.00 0.00 56 1026.2
20200219081731 45 56 2.0 5.0 0.00 0.00 0.00 56 1026.1
20200219080115 46 359 0.0 3.0 0.00 0.00 0.00 56 1026.0